[[{"header":{"parameterUnit":"m.s-1","parameterCategory":1,"la1":30.2991,"la2":30.254,"lo1":-89.0895,"lo2":-89.0444,"dy":0.0017,"dx":0.0017,"nx":28,"ny":28,"refTime":"2023-10-21T03:00:00:Z","depth":0,"parameterNumber":2,"parameterNumberName":"U-component_of_WINDS"},"data":[0,0,0,0,0,0,0,0,0,0,0,0,0,0,0,0,0,0,0,0,0,0,0,0,0,0,0,0,0,0,0,0,0,0,0,0,0,0,0,0,0,0,0,0,0,0,0,0,0,0,0,0,0,0,0,0,0,0,-0.3027,-0.3025,0,-0.2874,-0.2872,-0.2871,-0.2793,-0.2793,-0.2793,-0.2793,-0.2634,-0.263,-0.2625,0,0,0,0,0,0,0,0,0,0,0,0,0,-0.325,-0.3246,-0.3027,-0.3025,-0.3023,-0.2874,-0.2872,-0.287,-0.2793,-0.2793,-0.2793,-0.2793,-0.2635,-0.263,-0.2625,0,0,0,0,0,0,0,0,0,0,0,0,0,-0.3131,-0.3245,-0.3027,-0.2967,-0.296,-0.2875,-0.2872,-0.287,-0.2793,-0.2793,-0.2793,-0.2793,-0.2637,-0.2631,-0.2624,-0.2587,0,0,-0.2605,-0.2602,0,0,0,0,0,0,0,0,-0.3138,-0.3123,-0.2978,-0.2971,-0.2963,-0.2853,-0.2892,-0.2775,-0.2793,-0.2856,-0.2793,-0.2793,-0.2706,-0.2694,-0.2666,-0.2579,-0.2573,-0.2605,-0.2601,-0.2598,-0.2596,0,0,0,0,0,0,0,-0.3146,-0.3129,-0.2966,-0.2976,-0.2967,-0.2947,-0.293,-0.287,-0.2784,-0.2851,-0.2845,-0.2828,-0.2702,-0.2672,-0.2661,-0.257,-0.2605,-0.2599,-0.2595,-0.2593,-0.2446,-0.2445,0,0,0,0,0,0,-0.3164,-0.3136,-0.2971,-0.2962,-0.3052,-0.2943,-0.2924,-0.2888,-0.2784,-0.2768,-0.2828,-0.2825,-0.2683,-0.2669,-0.2656,-0.2605,-0.2598,-0.2592,-0.2589,-0.2446,-0.2446,-0.2445,0,0,0,0,0,0,-0.317,-0.315,-0.2977,-0.3047,-0.3024,-0.2939,-0.29,-0.2885,-0.2855,-0.2767,-0.2751,-0.2813,-0.2682,-0.2664,-0.2605,-0.2598,-0.2589,-0.2584,-0.2446,-0.2446,-0.2445,-0.2504,0,0,0,0,0,0,-0.3176,-0.3153,-0.3138,-0.3048,-0.302,-0.293,-0.2899,-0.2882,-0.2844,-0.2839,-0.2749,-0.2734,-0.2681,-0.2615,-0.2599,-0.2589,-0.2579,-0.2446,-0.2446,-0.2446,-0.2502,-0.2505,-0.2508,0,0,0,0,0,-0.3184,-0.316,-0.3138,-0.3118,-0.3001,-0.293,-0.2914,-0.2855,-0.2844,-0.2829,-0.2772,-0.2736,-0.2602,-0.2609,-0.259,-0.2579,-0.2446,-0.2446,-0.2446,-0.25,-0.2505,-0.2508,0,0,0,0,0,0,-0.3251,-0.3147,-0.3121,-0.3067,-0.3008,-0.2917,-0.2896,-0.2861,-0.2803,-0.28,-0.2728,-0.2708,-0.2655,-0.2611,-0.2621,-0.2538,-0.252,-0.2516,-0.2569,-0.2572,-0.2575,-0.2587,-0.2573,0,0,0,0,0,-0.326,-0.3212,-0.3123,-0.3084,-0.3056,-0.2981,-0.2948,-0.2907,-0.2843,-0.2817,-0.2756,-0.2695,-0.2638,-0.2603,-0.2546,-0.2495,-0.2474,-0.2478,-0.2482,-0.2485,-0.2482,-0.2452,-0.2453,-0.2444,-0.2444,-0.2444,0,0,-0.3277,-0.3214,-0.3188,-0.3096,-0.3045,-0.2997,-0.296,-0.291,-0.2873,-0.2809,-0.275,-0.2703,-0.2629,-0.2574,-0.2547,-0.2535,-0.248,-0.2484,-0.2488,-0.2483,-0.2452,-0.2453,-0.2453,-0.2444,-0.2444,-0.2444,0,0,-0.3283,-0.3231,-0.3192,-0.3143,-0.3067,-0.3017,-0.3008,-0.2922,-0.2889,-0.2828,-0.2779,-0.2734,-0.2638,-0.2588,-0.255,-0.2537,-0.2502,-0.2521,-0.2538,-0.2509,-0.251,-0.251,-0.2505,-0.2505,-0.2518,-0.2518,-0.2518,0,-0.3313,-0.3239,-0.3177,-0.3129,-0.309,-0.3031,-0.2991,-0.2946,-0.2855,-0.2829,-0.2818,-0.2698,-0.2644,-0.2576,-0.2573,-0.2544,-0.2531,-0.253,-0.2515,-0.2514,-0.2514,-0.2508,-0.2507,-0.2521,-0.2521,-0.252,-0.252,0,-0.328,-0.3229,-0.3207,-0.3122,-0.308,-0.3037,-0.2968,-0.2933,-0.2896,-0.2848,-0.2786,-0.2719,-0.2648,-0.2629,-0.2592,-0.2556,-0.2552,-0.2529,-0.251,-0.2518,-0.2512,-0.251,-0.2525,-0.2524,-0.2523,-0.2522,0,0,-0.3323,-0.3205,-0.3198,-0.3159,-0.3071,-0.303,-0.2984,-0.2915,-0.2887,-0.2826,-0.2786,-0.2707,-0.2685,-0.2642,-0.2599,-0.2574,-0.2568,-0.2553,-0.2551,-0.2558,-0.2524,-0.2542,-0.254,-0.2544,-0.2544,-0.2543,-0.253,0,-0.3317,-0.3232,-0.3175,-0.3113,-0.3065,-0.3008,-0.2968,-0.291,-0.2863,-0.2815,-0.2763,-0.2709,-0.2684,-0.2658,-0.2631,-0.2575,-0.256,-0.2575,-0.2505,-0.2503,-0.2525,-0.2537,-0.2555,-0.2546,-0.2527,-0.2527,-0.2526,0,-0.3298,-0.324,-0.3174,-0.3092,-0.3069,-0.3034,-0.2967,-0.2922,-0.2854,-0.2822,-0.2775,-0.2731,-0.2679,-0.2665,-0.2593,-0.2604,-0.2572,-0.254,-0.2538,-0.2529,-0.2516,-0.2528,-0.2542,-0.2541,-0.2522,-0.2522,-0.2523,0,-0.3337,-0.3242,-0.319,-0.3158,-0.3061,-0.3038,-0.2996,-0.2928,-0.2891,-0.2832,-0.2806,-0.2742,-0.2706,-0.2657,-0.2596,-0.2592,-0.253,-0.2511,-0.2501,-0.2503,-0.2491,-0.2492,-0.25,-0.2471,-0.2471,-0.2471,-0.2471,0,-0.3336,-0.3297,-0.3206,-0.3174,-0.3129,-0.3064,-0.3021,-0.2974,-0.2914,-0.2872,-0.2818,-0.2779,-0.2702,-0.2653,-0.2606,-0.2553,-0.2537,-0.2509,-0.2497,-0.2514,-0.2518,-0.2492,-0.2491,-0.247,-0.2471,-0.2471,-0.2471,0,-0.3371,-0.3309,-0.3248,-0.3161,-0.3139,-0.3109,-0.3034,-0.3001,-0.2952,-0.2899,-0.2882,-0.2805,-0.2745,-0.268,-0.2598,-0.2566,-0.2515,-0.2498,-0.2539,-0.2532,-0.2526,-0.2527,-0.2516,-0.2512,-0.2487,-0.2487,-0.2488,0,-0.3375,-0.3344,-0.3254,-0.3222,-0.3182,-0.3131,-0.3092,-0.3027,-0.2989,-0.291,-0.2886,-0.2822,-0.2767,-0.2674,-0.261,-0.2547,-0.2527,-0.2528,-0.2517,-0.2536,-0.2527,-0.253,-0.2526,-0.2531,-0.2532,-0.2532,-0.2533,0,-0.3387,-0.3358,-0.3305,-0.3242,-0.3198,-0.3144,-0.3088,-0.3065,-0.2988,-0.2948,-0.2887,-0.2845,-0.2761,-0.2698,-0.2628,-0.2583,-0.2545,-0.2537,-0.2531,-0.2548,-0.2573,-0.2559,-0.2547,-0.2537,-0.2537,-0.2536,-0.2536,-0.2536,-0.3407,-0.3377,-0.3309,-0.3252,-0.3203,-0.3152,-0.3117,-0.3063,-0.3011,-0.2939,-0.2903,-0.2842,-0.2774,-0.2676,-0.2633,-0.2583,-0.2571,-0.2563,-0.2561,-0.256,-0.2565,-0.2581,-0.257,-0.257,-0.257,-0.2569,-0.2569,0,-0.3417,-0.337,-0.3319,-0.3243,-0.3198,-0.3167,-0.3103,-0.3068,-0.3015,-0.2956,-0.2903,-0.2833,-0.2771,-0.2703,-0.2637,-0.2611,-0.2592,-0.2596,-0.2597,-0.2588,-0.2579,-0.259,-0.2613,-0.2613,-0.2613,-0.2613,-0.2613,-0.2613,-0.3417,-0.3364,-0.3327,-0.325,-0.3203,-0.3144,-0.311,-0.3063,-0.3015,-0.2939,-0.2889,-0.2845,-0.2781,-0.2711,-0.2653,-0.2634,-0.2613,-0.2622,-0.2599,-0.2592,-0.2588,-0.2585,-0.2595,-0.2618,-0.2618,-0.2611,-0.2611,-0.2611]},{"header":{"parameterUnit":"m.s-1","parameterCategory":1,"la1":30.2991,"la2":30.254,"lo1":-89.0895,"lo2":-89.0444,"dy":0.0017,"dx":0.0017,"nx":28,"ny":28,"refTime":"2023-10-21T03:00:00:Z","depth":0,"parameterNumber":3,"parameterNumberName":"V-component_of_WINDS"},"data":[0,0,0,0,0,0,0,0,0,0,0,0,0,0,0,0,0,0,0,0,0,0,0,0,0,0,0,0,0,0,0,0,0,0,0,0,0,0,0,0,0,0,0,0,0,0,0,0,0,0,0,0,0,0,0,0,0,0,2.581,2.581,0,2.5808,2.5808,2.5808,2.5785,2.5784,2.5783,2.5783,2.5781,2.5782,2.5782,0,0,0,0,0,0,0,0,0,0,0,0,0,2.5793,2.5793,2.581,2.581,2.581,2.5808,2.5808,2.5808,2.5785,2.5784,2.5783,2.5782,2.5781,2.5782,2.5782,0,0,0,0,0,0,0,0,0,0,0,0,0,2.5796,2.5793,2.581,2.5798,2.5797,2.5808,2.5808,2.5808,2.5785,2.5784,2.5783,2.5782,2.5781,2.5782,2.5782,2.5805,0,0,2.5785,2.5785,0,0,0,0,0,0,0,0,2.5796,2.5797,2.58,2.5799,2.5797,2.5795,2.5801,2.5807,2.5785,2.5789,2.5783,2.5782,2.5787,2.5787,2.5789,2.5805,2.5805,2.5785,2.5785,2.5786,2.5786,0,0,0,0,0,0,0,2.5796,2.5797,2.5809,2.58,2.5798,2.5792,2.5792,2.5802,2.5793,2.5789,2.5787,2.5787,2.5786,2.5788,2.5788,2.5805,2.5785,2.5785,2.5786,2.5786,2.5839,2.584,0,0,0,0,0,0,2.5797,2.5797,2.5809,2.5809,2.5795,2.5794,2.5793,2.5797,2.5793,2.5791,2.5788,2.5786,2.5787,2.5787,2.5788,2.5814,2.5786,2.5786,2.5787,2.5838,2.5839,2.584,0,0,0,0,0,0,2.5797,2.5799,2.5809,2.5802,2.5803,2.5795,2.5799,2.5797,2.5799,2.5792,2.579,2.5792,2.5786,2.5787,2.5801,2.5814,2.5787,2.5787,2.5837,2.5838,2.584,2.5866,0,0,0,0,0,0,2.5797,2.5799,2.5807,2.5803,2.5804,2.5822,2.58,2.5798,2.5801,2.5798,2.5795,2.5794,2.5786,2.58,2.5802,2.5814,2.5788,2.5836,2.5837,2.5839,2.5864,2.5868,2.5871,0,0,0,0,0,2.5796,2.5815,2.5808,2.5809,2.5814,2.5823,2.5823,2.5813,2.5802,2.581,2.5806,2.5794,2.5812,2.5801,2.5803,2.5816,2.5835,2.5837,2.5839,2.5862,2.5867,2.5871,0,0,0,0,0,0,2.5821,2.5814,2.5806,2.5824,2.5824,2.5819,2.5829,2.5819,2.5822,2.582,2.5808,2.5807,2.5823,2.5821,2.5809,2.5837,2.5821,2.5824,2.5838,2.5843,2.5847,2.5847,2.5789,0,0,0,0,0,2.5829,2.5836,2.5829,2.5846,2.5846,2.5838,2.5841,2.5833,2.5833,2.5833,2.5829,2.5829,2.5835,2.5839,2.5844,2.5863,2.5862,2.5873,2.5877,2.588,2.5883,2.5893,2.5897,2.5847,2.5847,2.5847,0,0,2.5845,2.5842,2.5847,2.5851,2.585,2.5858,2.5838,2.5847,2.5853,2.5834,2.5847,2.5844,2.5843,2.586,2.5867,2.5859,2.5896,2.5883,2.5886,2.5886,2.5895,2.59,2.5904,2.5848,2.5848,2.5848,0,0,2.5877,2.5876,2.5889,2.5888,2.5887,2.5881,2.5885,2.5881,2.5878,2.589,2.5877,2.5883,2.5893,2.5893,2.5894,2.5927,2.5916,2.5928,2.5949,2.5959,2.5962,2.5966,2.5977,2.5981,2.5931,2.5931,2.5931,0,2.5897,2.5908,2.5897,2.5907,2.5909,2.5892,2.5906,2.5906,2.5906,2.5908,2.5899,2.5911,2.5909,2.5925,2.5933,2.5935,2.5938,2.5929,2.5963,2.5966,2.5969,2.598,2.5984,2.5932,2.5932,2.5932,2.5932,0,2.5932,2.594,2.5951,2.5952,2.5955,2.5966,2.5957,2.5961,2.5954,2.5949,2.5961,2.5959,2.5963,2.5966,2.5958,2.5981,2.5976,2.5965,2.5948,2.5976,2.5985,2.5989,2.5935,2.5934,2.5934,2.5933,0,0,2.5981,2.5975,2.5979,2.5979,2.5976,2.5982,2.5993,2.5996,2.6,2.6001,2.601,2.6018,2.6008,2.601,2.6002,2.6011,2.6036,2.5998,2.5998,2.6005,2.606,2.6068,2.6073,2.6029,2.6029,2.603,2.606,0,2.6012,2.603,2.602,2.6039,2.6046,2.603,2.6039,2.6039,2.6034,2.604,2.6035,2.6041,2.6027,2.6028,2.6036,2.6031,2.6047,2.6029,2.6036,2.6037,2.6037,2.6078,2.6087,2.6116,2.6064,2.6065,2.6065,0,2.6051,2.6053,2.6073,2.6068,2.6071,2.6079,2.6081,2.6087,2.6086,2.6082,2.6083,2.6073,2.6083,2.6067,2.6081,2.6069,2.6071,2.607,2.607,2.6071,2.6053,2.608,2.6125,2.6129,2.6071,2.6071,2.607,0,2.6084,2.6092,2.6104,2.6105,2.61,2.6106,2.6105,2.6103,2.6105,2.6107,2.6109,2.6112,2.6114,2.6117,2.6108,2.6097,2.6123,2.6106,2.612,2.612,2.6126,2.6125,2.6172,2.6128,2.6128,2.6128,2.6127,0,2.612,2.6132,2.6119,2.6127,2.614,2.6129,2.6143,2.6139,2.6138,2.6145,2.6131,2.6138,2.6126,2.6132,2.6125,2.6137,2.6138,2.6135,2.6133,2.6136,2.6137,2.6138,2.6135,2.6129,2.6128,2.6128,2.6128,0,2.6159,2.6151,2.6163,2.6158,2.6156,2.6167,2.6162,2.6169,2.6163,2.6172,2.6173,2.6165,2.6171,2.6162,2.6167,2.6163,2.6179,2.6174,2.618,2.6178,2.6193,2.6191,2.6241,2.6247,2.6199,2.62,2.62,0,2.6182,2.6191,2.6187,2.619,2.6189,2.6195,2.6197,2.6186,2.6189,2.6189,2.6196,2.62,2.6203,2.6213,2.6208,2.6211,2.6206,2.6223,2.6207,2.6209,2.6206,2.6206,2.6207,2.6227,2.6227,2.6228,2.6228,0,2.6224,2.622,2.6224,2.6226,2.6229,2.6231,2.6231,2.6235,2.6223,2.6228,2.6233,2.6235,2.624,2.6245,2.6247,2.6245,2.6235,2.6234,2.6237,2.624,2.6243,2.6241,2.6189,2.6232,2.6232,2.6232,2.6231,2.6231,2.6256,2.6263,2.6261,2.6266,2.6265,2.6266,2.6272,2.6267,2.6271,2.6274,2.6267,2.6274,2.6273,2.6274,2.6274,2.6279,2.6272,2.6277,2.6278,2.6279,2.6282,2.6242,2.628,2.628,2.6279,2.6279,2.6279,0,2.6297,2.6295,2.6299,2.63,2.6304,2.6293,2.6293,2.6297,2.6304,2.6303,2.6306,2.6312,2.6316,2.6311,2.6315,2.632,2.6315,2.6321,2.6321,2.632,2.6288,2.6285,2.6325,2.6325,2.6325,2.6325,2.6325,2.6325,2.6319,2.6331,2.6326,2.6337,2.6334,2.6341,2.6342,2.6342,2.6342,2.6349,2.6352,2.6349,2.6346,2.6349,2.6353,2.6351,2.6353,2.636,2.6357,2.6327,2.6323,2.6318,2.6315,2.6361,2.6361,2.6389,2.6389,2.6389]}]]